Hourly Weather Roundup
Issued by NWS Central Illinois

Home | Current Version | Previous Version | Graphics & Text | Print | Product List | Glossary On
Versions: 1 2 3 4 5 6 7 8 9 10 11 12 13 14 15 16 17 18 19 20 21 22 23 24 25 26 27 28 29 30 31 32 33 34 35 36 37 38 39 40 41 42 43 44 45 46 47 48 49 50
000
NZUS43 KILX 262110
HWRILX

AREA WEATHER ROUNDUP
NATIONAL WEATHER SERVICE, LINCOLN IL
300 PM CST WED NOV 26 2014


CITY           SKY/WX    TMP DP  RH WIND       PRES   REMARKS
BLOOMINGTON    CLOUDY    28  25  89 E10       30.07R WCI  19
CHAMPAIGN      PTSUNNY   29  24  82 E9        30.06S WCI  20
DECATUR        LGT SNOW  29  26  89 E12       30.06R VSB 1   WCI  19
FLORA          MOSUNNY   35  29  78 E6        30.03R WCI  30
GALESBURG      LGT SNOW  30  28  93 E12G18    30.03R WCI  21
JACKSONVILLE   LGT SNOW  34  32  93 SE8       30.01R VSB 3/4 WCI  27
LACON          CLOUDY    28  23  79 E9        30.08S WCI  20
LAWRENCEVILLE  MOSUNNY   39  27  62 E3        30.04F
LITCHFIELD     LGT SNOW  32  30  93 E6        30.00R VSB 1   WCI  26
$$


CITY           SKY/WX    TMP DP  RH WIND       PRES   REMARKS
LINCOLN        LGT SNOW  31  29  92 E13       30.07S VSB 1   WCI  21
MACOMB         LGT SNOW  31  31  99 E14       30.03R WCI  21
MATTOON        CLOUDY    29  24  82 E5        30.04S WCI  24
MT CARMEL AP   CLOUDY    41  28  60 CALM      30.03S
OLNEY-NOBLE AP CLOUDY    36  30  80 E3        30.03S
PARIS          MOSUNNY   33  26  76 CALM      30.06S
PEORIA         LGT SNOW  31  25  78 E10       30.06S WCI  22
PONTIAC        CLOUDY    29  24  82 E9        30.10S WCI  21
RANTOUL        CLOUDY    31  24  75 E6        30.07S WCI  25
ROBINSON       MOSUNNY   35  28  73 E5        30.06S WCI  31
SPRINGFIELD    LGT SNOW  32  30  92 E13       30.02S FOG     WCI  22
TAYLORVILLE    LGT SNOW  32  30  93 E13       30.02S WCI  22
$$

...REGIONAL REPORTS...


CITY           SKY/WX    TMP DP  RH WIND       PRES   REMARKS
CHICAGO O`HARE CLOUDY    28  20  71 E8        30.10S WCI  20
KANKAKEE       CLOUDY   N/A N/A N/A NE5       30.11S
MOLINE         CLOUDY    29  24  82 E15       30.07R HAZE    WCI  18
MOUNT VERNON   CLOUDY    37  28  70 E8        30.01S WCI  31
PITTSFIELD     CLOUDY    33  32  96 E5        30.00R WCI  29
QUINCY         MIX PCPN  32  30  92 E12       29.98R FOG     WCI  23
ROCKFORD       CLOUDY    26  19  74 E6        30.14R WCI  19
$$


CITY           SKY/WX    TMP DP  RH WIND       PRES   REMARKS
BURLINGTON     SNOW      31  29  92 E10       30.01R VSB 1/2 WCI  22
CEDAR RAPIDS   CLOUDY    30  26  85 E13       30.06R WCI  20
DES MOINES     FLURRIES  32  27  81 N13       30.06R WCI  22
KIRKSVILLE     CLOUDY    34  34 100 E3        29.95R FOG
OTTUMWA        LGT SNOW  30  28  92 E14       30.00R FOG     WCI  19
ST LOUIS       LGT SNOW  34  30  86 SE6       30.00  VSB 3/4 WCI  29
$$


CITY           SKY/WX    TMP DP  RH WIND       PRES   REMARKS
TERRE HAUTE    MOSUNNY   36  24  62 CALM      30.05S
EVANSVILLE     CLOUDY    40  28  62 VRB5      30.03F
INDIANAPOLIS   PTSUNNY   33  23  66 SE6       30.04S WCI  28
LAFAYETTE      MOSUNNY   30  22  72 VRB3      30.08S
MADISON        CLOUDY    20  16  84 N7        30.15R FOG     WCI  11
MILWAUKEE      CLOUDY    30  21  69 CALM      30.12R
$$





USA.gov is the U.S. government's official web portal to all federal, state and local government web resources and services.